EW4389 Weather Reports


time (UTC)temp
C
wind
direction
speed
KPH
gust
KPH
rain 1hr
cm
rain 24hr
cm
rain mn
cm
humidity
%
barometer
mb
20260504044550 9 267 9.7 20.9 0.00 0.00 0.00 59 1006.5
20260504043045 9 244 11.3 24.1 0.00 0.00 0.00 60 1006.5
20260504041542 9 275 6.4 19.3 0.00 0.00 0.00 60 1006.6
20260504040044 9 264 16.1 20.9 0.00 0.00 0.00 60 1006.8
20260504034539 9 242 6.4 17.7 0.00 0.00 0.00 61 1006.7
20260504033049 10 275 4.8 16.1 0.00 0.00 0.00 61 1006.8
20260504031538 10 254 8.0 14.5 0.00 0.00 0.00 60 1006.7
20260504030037 10 266 9.7 20.9 0.00 0.00 0.00 59 1006.8
20260504024545 10 269 9.7 22.5 0.00 0.00 0.00 59 1006.9
20260504023036 10 285 11.3 20.9 0.00 0.00 0.00 59 1007.1
20260504021539 11 281 9.7 25.7 0.00 0.00 0.00 59 1007.2
20260504020034 11 302 14.5 40.2 0.00 0.00 0.00 58 1007.3
20260504014534 11 271 16.1 41.8 0.00 0.00 0.00 57 1007.4
20260504013038 11 291 19.3 40.2 0.00 0.00 0.00 56 1007.2
20260504011533 11 304 19.3 30.6 0.00 0.00 0.00 57 1007.2
20260504010032 10 309 17.7 33.8 0.00 0.00 0.00 58 1007.2
20260504004541 10 299 14.5 33.8 0.00 0.00 0.00 58 1007.2
20260504003030 11 293 27.4 48.3 0.00 0.00 0.00 56 1007.5
20260504001530 11 301 22.5 38.6 0.00 0.00 0.00 53 1007.2
20260504000030 11 298 20.9 35.4 0.00 0.00 0.00 52 1007.0
20260503234529 11 285 22.5 43.5 0.00 0.00 0.00 53 1007.0
20260503233031 11 315 25.7 46.7 0.00 0.00 0.00 53 1007.2
20260503231527 11 334 24.1 46.7 0.00 0.00 0.00 51 1007.0
20260503230032 11 312 37.0 59.5 0.00 0.00 0.00 49 1006.8
20260503224526 12 301 30.6 51.5 0.00 0.00 0.00 48 1006.8
20260503223026 12 296 20.9 46.7 0.00 0.00 0.00 48 1006.7
20260503221525 12 321 17.7 43.5 0.00 0.00 0.00 49 1006.8
20260503220025 12 300 33.8 61.2 0.00 0.00 0.00 45 1006.7
20260503214523 12 312 20.9 56.3 0.00 0.00 0.00 49 1006.7
20260503213027 12 298 19.3 38.6 0.00 0.00 0.00 50 1006.5
20260503211534 13 312 19.3 43.5 0.00 0.00 0.00 48 1006.5
20260503210020 13 256 27.4 46.7 0.00 0.00 0.00 51 1006.5
20260503204518 13 325 22.5 40.2 0.00 0.00 0.00 51 1006.6
20260503203015 12 329 17.7 25.7 0.00 0.00 0.00 53 1006.9
20260503201511 12 323 8.0 17.7 0.00 0.00 0.00 54 1007.0
20260503200009 11 307 14.5 25.7 0.00 0.00 0.00 52 1007.3
20260503194506 11 313 12.9 29.0 0.00 0.00 0.00 53 1007.6
20260503193014 11 303 14.5 27.4 0.00 0.00 0.00 52 1007.8
20260503191502 11 311 16.1 24.1 0.00 0.00 0.00 55 1008.0
20260503184607 11 290 16.1 32.2 0.00 0.00 0.00 53 1008.4
20260503183054 10 291 17.7 30.6 0.00 0.00 0.00 56 1008.7
20260503181552 10 309 17.7 29.0 0.00 0.00 0.00 58 1009.1
20260503180051 11 315 24.1 38.6 0.00 0.00 0.00 54 1009.1
20260503174603 10 289 19.3 33.8 0.00 0.00 0.00 55 1009.2
20260503173049 10 334 17.7 33.8 0.00 0.00 0.00 57 1009.3
20260503171645 10 300 12.9 32.2 0.00 0.00 0.00 54 1009.4
20260503081543 0 277 4.8 12.9 0.00 0.00 0.00 66 1010.8
20260503071532 1 285 4.8 14.5 0.00 0.00 0.00 69 1010.8
20260503054526 2 283 9.7 17.7 0.00 0.00 0.00 70 1011.1
20260503053009 2 286 11.3 17.7 0.00 0.00 0.00 71 1011.2